Weather History for Jesup, GA

Change the Weather History Date:

Sunday, May 6, 2012

  Actual Average (KLHW) Record (KLHW)
Temperature  
Mean Temperature 82 °F -  
Max Temperature 93 °F 84 °F 94 °F (1977)
Min Temperature 71 °F 57 °F 48 °F (1973)
Cooling Degree Days 17    
Growing Degree Days 32 (Base 50)    
Moisture  
Dew Point 64 °F    
Average Humidity 62    
Maximum Humidity 88    
Minimum Humidity 34    
Precipitation  
Precipitation 0.00 in - - ()
Sea Level Pressure  
Sea Level Pressure 29.91 in    
Wind  
Wind Speed 5 mph (WNW)    
Max Wind Speed 13 mph    
Max Gust Speed 18 mph    
Visibility 10 miles    
Events Rain , Thunderstorm    
Averages and records for this station are not official NWS values.
T = Trace of Precipitation, MM = Missing Value Source: NWS Daily Summary

Daily Weather History Graph

Daily Weather History Graph

Search for Another Location

Airport:

Trip Planner

Search our weather history database for the weather conditions in past years. The results will help you decide how hot, cold, wet, or windy it might be!

Date:

Astronomy

May. 06, 2012 Rise Set
Actual Time 6:37 AM EDT 8:11 PM EDT
Civil Twilight 6:11 AM EDT 8:37 PM EDT
Nautical Twilight 5:39 AM EDT 9:08 PM EDT
Astronomical Twilight 5:07 AM EDT 9:41 PM EDT
Moon 9:10 PM EDT (5/6) 6:49 AM EDT (5/6)
Length of Visible Light 14h 26m
Length of Day
13h 33m
Full, 100% of the Moon is Illuminated
May 6
Full
May 12
Last Quarter
May 20
New
May 28
First Quarter
Jun 4
Full

Hourly Weather History & Observations

Time (EDT) Temp. Heat Index Dew Point Humidity Pressure Visibility Wind Dir Wind Speed Gust Speed Precip Events Conditions
12:15 AM 73.4 °F - 60.8 °F 65% 29.91 in 10.0 mi West 3.5 mph - N/A   Clear
12:35 AM 73.4 °F - 60.8 °F 65% 29.91 in 10.0 mi West 3.5 mph - N/A   Clear
12:55 AM 73.4 °F - 60.8 °F 65% 29.91 in 10.0 mi West 4.6 mph - N/A   Clear
1:15 AM 71.6 °F - 60.8 °F 69% 29.91 in 10.0 mi West 4.6 mph - N/A   Clear
1:35 AM 71.6 °F - 60.8 °F 69% 29.90 in 10.0 mi West 3.5 mph - N/A   Clear
1:55 AM 71.6 °F - 60.8 °F 69% 29.90 in 10.0 mi West 4.6 mph - N/A   Clear
2:15 AM 71.6 °F - 60.8 °F 69% 29.90 in 10.0 mi West 4.6 mph - N/A   Clear
2:35 AM 71.6 °F - 60.8 °F 69% 29.90 in 10.0 mi West 5.8 mph - N/A   Clear
2:55 AM 71.6 °F - 60.8 °F 69% 29.89 in 10.0 mi West 4.6 mph - N/A   Clear
3:15 AM 71.6 °F - 60.8 °F 69% 29.89 in 10.0 mi West 4.6 mph - N/A   Clear
3:35 AM 71.6 °F - 60.8 °F 69% 29.89 in 10.0 mi West 6.9 mph - N/A   Clear
4:15 AM 71.6 °F - 62.6 °F 73% 29.88 in 10.0 mi West 5.8 mph - N/A   Clear
4:35 AM 71.6 °F - 62.6 °F 73% 29.88 in 10.0 mi WSW 5.8 mph - N/A   Clear
4:55 AM 71.6 °F - 62.6 °F 73% 29.88 in 10.0 mi West 4.6 mph - N/A   Clear
5:15 AM 71.6 °F - 62.6 °F 73% 29.88 in 10.0 mi West 4.6 mph - N/A   Clear
5:35 AM 71.6 °F - 62.6 °F 73% 29.88 in 10.0 mi West 4.6 mph - N/A   Clear
5:55 AM 71.6 °F - 62.6 °F 73% 29.88 in 10.0 mi West 4.6 mph - N/A   Clear
6:15 AM 71.6 °F - 64.4 °F 78% 29.89 in 10.0 mi West 4.6 mph - N/A   Clear
6:35 AM 71.6 °F - 64.4 °F 78% 29.90 in 10.0 mi West 4.6 mph - N/A   Clear
6:55 AM 71.6 °F - 64.4 °F 78% 29.90 in 10.0 mi WNW 5.8 mph - N/A   Clear
7:15 AM 71.6 °F - 64.4 °F 78% 29.90 in 10.0 mi WNW 4.6 mph - N/A   Clear
7:35 AM 73.4 °F - 64.4 °F 73% 29.90 in 10.0 mi WNW 6.9 mph - N/A   Clear
7:55 AM 73.4 °F - 64.4 °F 73% 29.91 in 10.0 mi NW 8.1 mph - N/A   Clear
8:15 AM 77.0 °F - 66.2 °F 69% 29.92 in 10.0 mi NW 6.9 mph - N/A   Clear
8:35 AM 77.0 °F - 66.2 °F 69% 29.91 in 10.0 mi NW 6.9 mph - N/A   Clear
8:55 AM 78.8 °F - 66.2 °F 65% 29.92 in 10.0 mi North 5.8 mph - N/A   Clear
9:15 AM 80.6 °F 82.7 °F 66.2 °F 61% 29.93 in 10.0 mi NNW 4.6 mph - N/A   Clear
9:35 AM 80.6 °F 82.7 °F 66.2 °F 61% 29.93 in 10.0 mi North 4.6 mph - N/A   Clear
9:55 AM 80.6 °F 82.7 °F 66.2 °F 61% 29.93 in 10.0 mi North 5.8 mph - N/A   Clear
10:15 AM 84.2 °F 86.6 °F 66.2 °F 55% 29.93 in 10.0 mi ENE 4.6 mph - N/A   Clear
10:35 AM 86.0 °F 88.2 °F 66.2 °F 51% 29.93 in 10.0 mi NE 4.6 mph - N/A   Clear
10:55 AM 86.0 °F 88.2 °F 66.2 °F 51% 29.93 in 10.0 mi Calm Calm - N/A   Clear
11:15 AM 87.8 °F 90.4 °F 66.2 °F 49% 29.93 in 10.0 mi East 3.5 mph - N/A   Clear
11:35 AM 87.8 °F 89.4 °F 64.4 °F 46% 29.93 in 10.0 mi North 5.8 mph - N/A   Clear
11:55 AM 87.8 °F 89.4 °F 64.4 °F 46% 29.93 in 10.0 mi West 3.5 mph - N/A   Scattered Clouds
12:15 PM 87.8 °F 89.4 °F 64.4 °F 46% 29.93 in 10.0 mi NNW 5.8 mph - N/A   Scattered Clouds
12:35 PM 89.6 °F 90.1 °F 62.6 °F 40% 29.93 in 10.0 mi Calm Calm - N/A   Scattered Clouds
12:55 PM 89.6 °F 90.1 °F 62.6 °F 40% 29.92 in 10.0 mi North 5.8 mph - N/A   Scattered Clouds
1:15 PM 89.6 °F 90.1 °F 62.6 °F 40% 29.92 in 10.0 mi NNW 10.4 mph 16.1 mph N/A   Clear
1:35 PM 91.4 °F 92.1 °F 62.6 °F 38% 29.91 in 10.0 mi NW 6.9 mph - N/A   Clear
1:55 PM 91.4 °F 91.4 °F 60.8 °F 36% 29.91 in 10.0 mi NNE 8.1 mph - N/A   Scattered Clouds
2:15 PM 91.4 °F 92.1 °F 62.6 °F 38% 29.90 in 10.0 mi North 10.4 mph - N/A   Mostly Cloudy
2:35 PM 91.4 °F 91.4 °F 60.8 °F 36% 29.90 in 10.0 mi NW 5.8 mph - N/A   Scattered Clouds
2:55 PM 93.2 °F 93.3 °F 60.8 °F 34% 29.89 in 10.0 mi NNW 11.5 mph - N/A   Clear
3:15 PM 91.4 °F 91.4 °F 60.8 °F 36% 29.88 in 10.0 mi NE 3.5 mph - N/A   Scattered Clouds
3:35 PM 93.2 °F 93.3 °F 60.8 °F 34% 29.86 in 10.0 mi NNE 9.2 mph 16.1 mph N/A   Scattered Clouds
3:55 PM 93.2 °F 93.3 °F 60.8 °F 34% 29.86 in 10.0 mi ENE 8.1 mph - N/A   Scattered Clouds
4:15 PM 91.4 °F 91.4 °F 60.8 °F 36% 29.85 in 10.0 mi NE 4.6 mph - N/A   Mostly Cloudy
4:35 PM 89.6 °F 89.5 °F 60.8 °F 38% 29.85 in 10.0 mi ENE 5.8 mph - N/A   Mostly Cloudy
4:55 PM 89.6 °F 89.5 °F 60.8 °F 38% 29.86 in 10.0 mi NE 6.9 mph - N/A   Mostly Cloudy
5:15 PM 91.4 °F 90.7 °F 59.0 °F 34% 29.87 in 10.0 mi East 8.1 mph - N/A   Scattered Clouds
5:35 PM 86.0 °F 89.4 °F 68.0 °F 55% 29.88 in 10.0 mi SE 9.2 mph 18.4 mph N/A   Mostly Cloudy
5:55 PM 84.2 °F 87.3 °F 68.0 °F 58% 29.90 in 10.0 mi SSE 12.7 mph 18.4 mph N/A   Mostly Cloudy
6:15 PM 82.4 °F 85.4 °F 68.0 °F 62% 29.91 in 10.0 mi SSE 6.9 mph - N/A   Overcast
6:35 PM 80.6 °F 83.9 °F 69.8 °F 70% 29.92 in 10.0 mi SSE 4.6 mph - N/A   Scattered Clouds
6:55 PM 80.6 °F 83.2 °F 68.0 °F 65% 29.91 in 10.0 mi South 5.8 mph - N/A   Clear
7:15 PM 78.8 °F - 68.0 °F 69% 29.92 in 10.0 mi SSE 3.5 mph - N/A   Scattered Clouds
7:35 PM 78.8 °F - 68.0 °F 69% 29.91 in 10.0 mi Calm Calm - N/A Thunderstorm Scattered Clouds
7:55 PM 78.8 °F - 68.0 °F 69% 29.92 in 10.0 mi SSW 3.5 mph - N/A   Mostly Cloudy
8:15 PM 77.0 °F - 68.0 °F 74% 29.93 in 10.0 mi WSW 5.8 mph - N/A   Mostly Cloudy
8:35 PM 77.0 °F - 68.0 °F 74% 29.94 in 10.0 mi South 3.5 mph - N/A   Mostly Cloudy
8:55 PM 77.0 °F - 68.0 °F 74% 29.95 in 10.0 mi South 3.5 mph - N/A   Mostly Cloudy
9:15 PM 77.0 °F - 68.0 °F 74% 29.95 in 10.0 mi SE 3.5 mph - N/A Thunderstorm Overcast
9:35 PM 75.2 °F - 68.0 °F 78% 29.96 in 10.0 mi SSE 3.5 mph - N/A Thunderstorm Mostly Cloudy
9:55 PM 75.2 °F - 68.0 °F 78% 29.95 in 10.0 mi SSE 4.6 mph - N/A Thunderstorm Mostly Cloudy
10:35 PM 73.4 °F - 69.8 °F 88% 29.97 in 10.0 mi ESE 4.6 mph - N/A Thunderstorm Thunderstorm
10:55 PM 73.4 °F - 69.8 °F 88% 29.97 in 10.0 mi SE 4.6 mph - N/A Thunderstorm Thunderstorm
11:15 PM 73.4 °F - 69.8 °F 88% 29.98 in 10.0 mi SE 4.6 mph - N/A Thunderstorm Thunderstorm
11:35 PM 73.4 °F - 69.8 °F 88% 29.98 in 10.0 mi NE 5.8 mph - N/A Thunderstorm Thunderstorm
11:55 PM 71.6 °F - 68.0 °F 88% 29.98 in 10.0 mi NNE 5.8 mph - N/A Rain , Thunderstorm Light Thunderstorms and Rain